#timestamp,LO_Frequency,Hit,StdDev 
1509120015.6,286047000.5,N
1509120035.5,286046998.3,N
1509120055.3,286047000.9,N
1509120075.1,286046996.6,N
1509120095.9,286046994.6,N
1509120115.7,286046997.9,N
1509120135.5,286046997.5,N
1509120155.4,286046995.7,N
1509120175.2,286046993.7,N
1509120195.0,286046995.8,N
1509120195.9,286046995.8,N
1509120215.8,286046996.8,N
1509120235.6,286047000.4,N
1509120255.4,286047000.9,N
1509120275.3,286046998.4,N
1509120295.1,286046997.0,N
1509120315.8,286046998.8,N
1509120335.7,286046998.1,N
1509120355.5,286047001.2,N
1509120375.3,286046996.5,N
1509120395.2,286046996.6,N
1509120415.0,286046995.1,N
1509120415.9,286046995.1,N
1509120435.8,286046996.0,N
1509120455.6,286046991.8,Y
1509120475.4,286046996.1,P
1509120495.3,286046997.5,N
1509120515.1,286046995.1,P
1509120535.8,286046992.7,Y
1509120555.7,286046992.3,P
1509120575.5,286046992.3,P
1509120595.3,286046994.2,N
1509120615.2,286046992.1,Y
1509120635.0,286046999.7,P
1509120635.9,286046999.7,N
1509120655.8,286046999.0,N
1509120675.6,286046999.4,N
1509120695.4,286046997.0,N
1509120715.3,286046998.3,N
1509120735.1,286046999.6,N
1509120755.8,286046998.4,N
1509120775.7,286046997.6,N
1509120795.5,286046999.0,N
1509120815.3,286046998.6,N
1509120835.2,286046997.1,N
1509120855.9,286046995.1,Y
1509120875.7,286046997.0,P
1509120895.6,286046993.6,P
1509120915.4,286046996.5,N
1509120935.2,286046995.2,N
1509120955.1,286046996.1,N
1509120956.0,286046996.1,N
1509120975.8,286046989.7,Y
1509120995.7,286046991.7,P
1509121015.5,286046994.5,N
1509121035.3,286046990.9,P
1509121055.2,286046991.0,Y
1509121075.0,286046997.2,P
1509121075.9,286046997.2,N
1509121095.7,286046997.0,N
1509121115.6,286046996.8,N
1509121135.4,286046996.7,N
1509121155.2,286046998.9,N
1509121175.1,286047001.9,N
1509121176.0,286047001.9,N
1509121195.8,286047001.2,N
1509121215.7,286046996.2,N
1509121235.5,286046994.5,N
1509121255.3,286046996.5,N
1509121275.2,286046997.2,N
1509121295.9,286046998.0,N
1509121315.7,286046997.1,N
1509121335.6,286046997.7,N
1509121355.4,286046998.2,N
1509121375.2,286047001.5,N
1509121395.1,286047002.2,N
1509121396.0,286047002.2,N
1509121415.8,286047000.4,N
1509121435.6,286046998.8,N
1509121455.5,286046995.8,N
1509121475.3,286046993.2,N
1509121495.1,286046990.9,Y
1509121515.9,286046990.6,P
1509121535.7,286046990.1,N
1509121555.5,286046990.6,N
1509121575.4,286046993.9,N
1509121595.2,286046993.7,N
1509121615.0,286046996.1,N
1509121616.0,286046996.1,N
1509121635.8,286046997.8,N
1509121655.6,286046995.7,N
1509121675.5,286046992.4,N
1509121695.3,286046990.9,Y
1509121715.1,286046998.6,P
1509121735.9,286046996.7,N
1509121755.7,286046998.9,N
1509121775.5,286046998.4,N
1509121795.4,286046997.2,N
1509121815.2,286046996.6,N
1509121835.0,286047001.0,N
1509121835.9,286047001.0,N
1509121855.8,286046998.1,N
1509121875.6,286046997.1,N
1509121895.4,286046995.8,N
1509121915.3,286046997.6,N
1509121935.1,286046997.1,N
1509121955.8,286046993.6,Y
1509121975.7,286046998.8,P
1509121995.5,286047002.4,P
1509122015.3,286047004.0,N
1509122035.2,286047003.6,N
1509122055.0,286046999.8,N
1509122055.9,286046999.8,N
1509122075.8,286047004.4,N
1509122095.6,286047002.1,N
1509122115.4,286047000.2,N
1509122135.3,286047005.9,N
1509122155.1,286047009.0,Y
1509122156.0,286047009.0,P
1509122175.8,286047007.2,N
1509122195.7,286047006.9,N
1509122215.5,286047005.2,N
1509122235.3,286047006.7,N
1509122255.2,286047012.8,Y
1509122275.0,286047008.7,P
1509122275.9,286047008.7,P
1509122295.8,286047008.8,P
1509122315.6,286047008.2,Y
1509122335.4,286047000.1,P
1509122355.3,286047000.2,N
1509122375.1,286046998.0,N
1509122395.8,286046996.0,N
1509122415.7,286046993.1,N
1509122435.5,286046990.7,N
1509122455.3,286046989.0,N
1509122475.2,286046990.9,N
1509122495.9,286046991.3,N
1509122515.7,286046991.4,N
1509122535.6,286046988.9,N
1509122555.4,286046997.9,N
1509122575.2,286046997.7,N
1509122595.1,286046994.2,N
1509122596.0,286046994.2,N
1509122615.8,286046995.8,N
1509122635.6,286047000.1,N
1509122655.5,286047003.6,N
1509122675.3,286047005.0,N
1509122695.1,286047009.2,N
1509122715.9,286047010.7,N
1509122735.7,286047013.6,N
1509122755.5,286047016.8,N
1509122775.4,286047015.3,N
1509122795.2,286047013.0,N
1509122815.0,286047015.6,N
1509122816.0,286047015.6,N
1509122835.8,286047016.7,N
1509122855.6,286047014.8,N
1509122875.5,286047017.2,N
1509122895.3,286047013.6,N
1509122915.1,286047006.3,N
1509122935.9,286047001.5,N
1509122955.7,286047004.2,N
1509122975.5,286047002.0,N
1509122995.4,286046996.5,N
1509123015.2,286046994.5,N
1509123035.0,286046996.5,N
1509123035.9,286046996.5,N
1509123055.8,286046999.3,N
1509123075.6,286046999.1,N
1509123095.4,286047002.3,N
1509123115.3,286047002.6,N
1509123135.1,286047003.5,N
1509123155.8,286047005.6,N
1509123175.7,286047006.0,N
1509123195.5,286047002.1,N
1509123215.3,286047002.1,N
1509123235.2,286047003.9,N
1509123255.0,286047004.2,N
1509123255.9,286047004.2,N
1509123275.7,286047004.5,N
1509123295.6,286047001.6,N
1509123315.4,286047003.2,N
1509123335.3,286047004.6,N
1509123355.1,286047002.9,N
1509123356.0,286047002.9,N
1509123375.8,286047001.7,N
1509123395.7,286047001.9,N
1509123415.5,286047003.1,N
1509123435.3,286047003.4,N
1509123455.2,286047006.9,N
1509123475.9,286047010.3,Y
1509123495.7,286047004.7,P
1509123515.6,286047007.1,P
1509123535.4,286047005.6,N
1509123555.2,286047006.0,Y
1509123575.1,286047002.8,P
1509123576.0,286047002.8,N
1509123595.8,286047002.3,N
